Regional Weather Roundup
Issued by NWS

Home | Current Version | Previous Version | Text Only | Print | Product List | Glossary On
Versions: 1 2 3 4 5 6 7 8 9 10 11 12 13 14 15 16 17 18 19 20 21 22 23 24 25 26 27 28 29 30 31 32 33 34 35 36 37 38 39 40 41 42 43 44 45 46 47 48 49 50
623
ASUS44 KMEG 110910
RWRTN
TENNESSEE HOURLY STATE WEATHER ROUNDUP
NATIONAL WEATHER SERVICE MEMPHIS TN
300 AM CST THU FEB 11 2016

TNZ002-004-019-021-049-052-054-088>092-111000-
WEST TENNESSEE

CITY           SKY/WX    TMP DP  RH WIND       PRES   REMARKS
MEMPHIS INTL   CLEAR     33  15  47 E5        30.05F WCI  29
NWS MEMPHIS      N/A     30 N/A N/A MISG        N/A
JACKSON        CLEAR     25  13  60 E7        30.11R WCI  17
DYERSBURG      CLEAR     25  12  58 E9        30.12S WCI  15
UNION CITY     MOCLDY    25  18  74 E5        30.11F WCI  19
PARIS          MOCLDY    21  18  86 E6        30.12S WCI  14
LEXINGTON      CLEAR     21  14  73 NE3       30.11R
$$

TNZ008-025-027-028-033-062-065-066-111000-
NORTH MIDDLE TENNESSEE

CITY           SKY/WX    TMP DP  RH WIND       PRES   REMARKS
NASHVILLE      CLOUDY    26  21  81 SE6       30.16F WCI  19
CLARKSVILLE    CLOUDY    25  21  85 E6        30.16R WCI  18
SMYRNA         CLOUDY    25  22  88 E7        30.17F WCI  17
COOKEVILLE     CLOUDY    25  19  80 CALM      30.13S
CROSSVILLE     CLOUDY    22  17  81 CALM      30.09S
$$

TNZ061-075-076-078-094-096-097-111000-
SOUTH MIDDLE TENNESSEE

CITY           SKY/WX    TMP DP  RH WIND       PRES   REMARKS
FAYETTEVILLE   CLEAR     27  21  80 E3        30.12S
TULLAHOMA      CLEAR     25  21  86 E5        30.12F WCI  19
WINCHESTER     CLEAR     23  19  86 NE3       30.13S
MCMINNVILLE    CLOUDY    25  19  80 CALM      30.13S
COLUMBIA       CLEAR     25  25 100 CALM      30.11F
SHELBYVILLE    MOCLDY    25  21  86 E3        30.15F
$$

TNZ017-018-042-046-047-111000-
NORTHEAST TENNESSEE

CITY           SKY/WX    TMP DP  RH WIND       PRES   REMARKS
TRI CITIES     CLOUDY    20   9  62 W3        30.12R
$$

TNZ012-013-036-069-073-074-111000-
CENTRAL EAST TENNESSEE

CITY           SKY/WX    TMP DP  RH WIND       PRES   REMARKS
KNOXVILLE      CLOUDY    26  18  71 SW7       30.15S WCI  18
OAK RIDGE      CLOUDY    27  17  66 S3        30.16S
GATLINBURG     CLOUDY    25  14  63 SW5       30.14S WCI  19
MORRISTOWN     CLOUDY    23  16  74 NW3       30.12S
$$

TNZ083-085-099-111000-
SOUTHEAST TENNESSEE

CITY           SKY/WX    TMP DP  RH WIND       PRES   REMARKS
CHATTANOOGA    CLOUDY    30  17  58 E5        30.16F WCI  25
$$

SKY/WX REPORTED AS FAIR MEANS FEW OR NO CLOUDS BELOW
12 THOUSAND FEET.





USA.gov is the U.S. government's official web portal to all federal, state and local government web resources and services.